Taunton, MA

12:27 AM EST on January 17, 2018 (GMT -0500)
Taunton Municipal

Weather History for KTAN - March, 2013

Change the Weather History Date:

Friday, March 8, 2013

  Actual Average Record
Temperature  
Mean Temperature 36 °F -  
Max Temperature 41 °F 44 °F 67 °F (1987)
Min Temperature 32 °F 23 °F 4 °F (1986)
Degree Days  
Heating Degree Days 28    
Moisture  
Dew Point 29 °F    
Average Humidity 82    
Maximum Humidity 89    
Minimum Humidity 53    
Precipitation  
Precipitation 0.77 in - - ()
Sea Level Pressure  
Sea Level Pressure 29.96 in    
Wind  
Wind Speed 13 mph (North)    
Max Wind Speed 22 mph    
Max Gust Speed 30 mph    
Visibility 2 miles    
Events Fog , Rain , Snow    
Averages and records for this station are not official NWS values.
T = Trace of Precipitation, MM = Missing Value Source: NWS Daily Summary

Daily Weather History Graph

Daily Weather History Graph

Search for Another Location

Airport or City:

Trip Planner

Search our weather history database for the weather conditions in past years. The results will help you decide how hot, cold, wet, or windy it might be!

Date:

Astronomy

Mar. 08, 2013 Rise Set
Actual Time 6:07 AM EST 5:42 PM EST
Civil Twilight 5:39 AM EST 6:10 PM EST
Nautical Twilight 5:07 AM EST 6:42 PM EST
Astronomical Twilight 4:34 AM EST 7:15 PM EST
Moon 3:52 AM EST (3/8) 2:32 PM EST (3/8)
Length of Visible Light 12h 31m
Length of Day
11h 35m
Waning Crescent, 12% of the Moon is Illuminated
Mar 8
Waning Crescent
Mar 11
New
Mar 19
First Quarter
Mar 27
Full
Apr 3
Last Quarter

Hourly Weather History & Observations

Time (EST) Temp. Windchill Dew Point Humidity Pressure Visibility Wind Dir Wind Speed Gust Speed Precip Events Conditions
12:14 AM 34.0 °F 25.5 °F 30.0 °F 85% 29.92 in 1.2 mi North 11.5 mph 18.4 mph 0.02 in Snow Light Snow
1:05 AM 34.0 °F 24.6 °F 30.0 °F 85% 29.91 in 1.2 mi North 13.8 mph 23.0 mph 0.01 in Snow Light Snow
1:36 AM 34.0 °F 25.0 °F 30.0 °F 85% 29.90 in 1.2 mi North 12.7 mph 24.2 mph 0.02 in Snow Light Snow
1:52 AM 34.0 °F 24.6 °F 30.0 °F 85% 29.89 in 1.0 mi North 13.8 mph 23.0 mph 0.03 in Snow Light Snow
2:52 AM 33.1 °F 24.4 °F 28.9 °F 85% 29.89 in 1.0 mi North 11.5 mph 23.0 mph 0.03 in Snow Light Snow
3:24 AM 33.1 °F 23.9 °F 28.9 °F 85% 29.88 in 0.8 mi North 12.7 mph 19.6 mph 0.02 in Snow Light Snow
3:52 AM 33.1 °F 23.9 °F 30.0 °F 89% 29.88 in 0.8 mi North 12.7 mph 23.0 mph 0.04 in Snow Light Snow
4:26 AM 33.1 °F 23.9 °F 28.9 °F 85% 29.89 in 0.5 mi North 12.7 mph 24.2 mph 0.05 in Fog , Snow Snow
4:43 AM 32.0 °F 23.6 °F 28.9 °F 88% 29.89 in 0.5 mi North 10.4 mph 23.0 mph 0.07 in Fog , Snow Snow
5:52 AM 32.0 °F 21.6 °F 28.9 °F 88% 29.89 in 0.5 mi North 15.0 mph 23.0 mph 0.09 in Fog , Snow Snow
6:38 AM 33.1 °F 22.6 °F 28.9 °F 85% 29.89 in 0.2 mi North 16.1 mph 25.3 mph 0.05 in Fog , Snow Snow
6:52 AM 33.1 °F 24.9 °F 28.9 °F 85% 29.90 in 0.5 mi North 10.4 mph 26.5 mph 0.06 in Fog , Snow Snow
7:52 AM 33.1 °F 23.0 °F 30.0 °F 89% 29.90 in 0.2 mi North 15.0 mph 26.5 mph 0.05 in Fog , Snow Snow
8:52 AM 33.1 °F 21.9 °F 28.9 °F 85% 29.91 in 0.2 mi North 18.4 mph 25.3 mph 0.06 in Fog , Snow Snow
9:52 AM 33.1 °F 24.9 °F 30.0 °F 89% 29.93 in 0.5 mi North 10.4 mph 21.9 mph 0.05 in Fog , Snow Snow
10:52 AM 33.1 °F 23.0 °F 28.9 °F 85% 29.93 in 0.2 mi North 15.0 mph 27.6 mph 0.05 in Fog , Snow Snow
11:52 AM 33.1 °F 20.9 °F 28.9 °F 85% 29.94 in 0.8 mi North 21.9 mph 29.9 mph 0.03 in Snow Light Snow
12:04 PM 33.1 °F 22.6 °F 30.0 °F 89% 29.94 in 0.2 mi North 16.1 mph 26.5 mph 0.01 in Fog , Snow Snow
12:19 PM 33.1 °F 23.0 °F 28.9 °F 85% 29.94 in 0.5 mi North 15.0 mph 29.9 mph 0.02 in Fog , Snow Snow
12:52 PM 33.1 °F 22.6 °F 30.0 °F 89% 29.94 in 0.2 mi North 16.1 mph 26.5 mph 0.04 in Fog , Snow Snow
1:52 PM 33.1 °F 23.0 °F 30.0 °F 89% 29.95 in 0.8 mi North 15.0 mph 26.5 mph 0.04 in Snow Light Snow
2:20 PM 34.0 °F 23.4 °F 30.0 °F 85% 29.96 in 0.5 mi North 17.3 mph 27.6 mph 0.00 in Fog , Snow Snow
2:49 PM 33.8 °F 25.8 °F 30.2 °F 87% 29.97 in 1.0 mi North 10.4 mph 26.5 mph 0.02 in Snow Light Snow
2:52 PM 34.0 °F 23.8 °F 30.0 °F 85% 29.97 in 1.0 mi North 16.1 mph 24.2 mph 0.02 in Snow Light Snow
3:00 PM 34.0 °F 24.6 °F 30.0 °F 85% 29.97 in 0.8 mi North 13.8 mph 23.0 mph 0.00 in Snow Light Snow
3:03 PM 34.0 °F 25.0 °F 30.0 °F 85% 29.97 in 1.0 mi NNE 12.7 mph 23.0 mph 0.00 in Snow Light Snow
3:16 PM 34.0 °F 26.0 °F 30.0 °F 85% 29.97 in 0.8 mi North 10.4 mph 25.3 mph 0.01 in Snow Light Snow
3:52 PM 34.0 °F 23.8 °F 30.9 °F 89% 29.99 in 0.5 mi North 16.1 mph 23.0 mph 0.04 in Fog , Snow Snow
4:52 PM 34.0 °F 25.0 °F 30.9 °F 89% 30.02 in 0.8 mi North 12.7 mph 20.7 mph 0.08 in Snow Light Snow
5:11 PM 34.0 °F 26.6 °F 30.9 °F 89% 30.03 in 1.0 mi North 9.2 mph 20.7 mph 0.02 in Snow Light Snow
5:28 PM 35.1 °F 26.4 °F 30.9 °F 85% 30.04 in 1.5 mi North 12.7 mph 21.9 mph 0.04 in Snow Light Snow
5:32 PM 35.1 °F 27.4 °F 30.9 °F 85% 30.04 in 2.0 mi NNE 10.4 mph 21.9 mph 0.04 in Snow Light Snow
5:52 PM 36.0 °F 28.0 °F 30.9 °F 82% 30.05 in 5.0 mi NNE 11.5 mph 26.5 mph 0.05 in Rain Light Rain
6:28 PM 37.9 °F 30.0 °F 30.0 °F 73% 30.05 in 10.0 mi NNE 12.7 mph 24.2 mph 0.01 in Rain Light Rain
6:52 PM 39.0 °F 33.4 °F 28.9 °F 67% 30.05 in 10.0 mi North 8.1 mph - 0.01 in   Overcast
7:52 PM 39.9 °F 33.9 °F 27.0 °F 60% 30.06 in 10.0 mi North 9.2 mph 18.4 mph N/A   Partly Cloudy
8:52 PM 41.0 °F 32.8 °F 25.0 °F 53% 30.07 in 10.0 mi North 16.1 mph 24.2 mph N/A   Clear
9:52 PM 39.9 °F 32.9 °F 25.0 °F 55% 30.08 in 10.0 mi North 11.5 mph 23.0 mph N/A   Clear
10:52 PM 39.9 °F 32.5 °F 24.1 °F 53% 30.09 in 10.0 mi North 12.7 mph 21.9 mph N/A   Clear
11:52 PM 39.0 °F 32.3 °F 25.0 °F 57% 30.09 in 10.0 mi North 10.4 mph 23.0 mph N/A   Clear